Regional Weather Roundup
Issued by NWS

Home | Current Version | Previous Version | Text Only | Print | Product List | Glossary On
Versions: 1 2 3 4 5 6 7 8 9 10 11 12 13 14 15 16 17 18 19 20 21 22 23 24 25 26 27 28 29 30 31 32 33 34 35 36 37 38 39 40 41 42 43 44 45 46 47 48 49 50
140
ASUS43 KTOP 261559
RWRKS

WEATHER ROUNDUP FOR KANSAS
NATIONAL WEATHER SERVICE GOODLAND KS
1100 AM CDT MON SEP 26 2016

NOTE:  "FAIR" INDICATES FEW OR NO CLOUDS BELOW 12,000 FEET WITH NO
SIGNIFICANT WEATHER AND/OR OBSTRUCTIONS TO VISIBILITY.

KSZ001>006-013>018-027>032-041>047-261700-
NORTHWEST KANSAS

CITY           SKY/WX    TMP DP  RH WIND       PRES   REMARKS
GOODLAND       SUNNY     65  30  27 SW13      30.38S
HAYS           SUNNY     66  32  28 W7        30.36S
HILL CITY      SUNNY     64  39  39 W7        30.37R
RUSSELL        SUNNY     65  43  44 W6        30.35R
$$

KSZ061>065-074>080-084>089-261700-
SOUTHWEST KANSAS

CITY           SKY/WX    TMP DP  RH WIND       PRES   REMARKS
DODGE CITY     SUNNY     65  31  28 S3        30.39S
ELKHART          N/A     63  36  36 W2          N/A
GARDEN CITY    SUNNY     64  25  22 VRB5      30.39S
GREAT BEND     SUNNY     64  39  39 W7        30.36S
LIBERAL        SUNNY     63  36  36 E3        30.41F
$$

KSZ066>073-081>083-090>101-261700-
SOUTHEAST KANSAS

CITY           SKY/WX    TMP DP  RH WIND       PRES   REMARKS
CHANUTE        SUNNY     67  46  47 N8        30.30S
COFFEYVILLE    SUNNY     68  49  50 N8        30.30R
HUTCHINSON     SUNNY     65  44  46 NW3       30.34F
MEDICINE LODGE   N/A     67  40  37 VRB3      30.36
NEWTON         SUNNY    N/A N/A N/A N5        30.34R
PARSONS        SUNNY     68  47  46 N9        30.31R
WICHITA INTL   MOSUNNY   67  41  38 NE5       30.33S
WICHITA JABRA  SUNNY     66  42  41 E3        30.33R
WINFIELD       SUNNY     67  45  45 NE6       30.33S
$$

KSZ007>012-019>026-033>040-048>060-102>105-261700-
NORTHEAST KANSAS

CITY           SKY/WX    TMP DP  RH WIND       PRES   REMARKS
CONCORDIA      SUNNY     64  41  42 NW9       30.32S
EMPORIA        SUNNY     65  46  50 VRB5      30.31S
LAWRENCE       SUNNY     66  50  56 NW5       30.29R
MANHATTAN      SUNNY     64  47  53 W5        30.31S
OLATHE IND     SUNNY     64  46  52 NW5       30.29S
OLATHE EXE     SUNNY     63  43  48 W6        30.29R
SALINA         SUNNY     64  46  52 NW5       30.34R
TOPEKA BILLARD SUNNY     64  48  56 W7        30.29S
TOPEKA FORBES  SUNNY     66  45  46 NW6       30.30S
$$




USA.gov is the U.S. government's official web portal to all federal, state and local government web resources and services.